{"data":{"norad_id":67325,"intl_designator":"2026-002W","name":"STARLINK-36473","alt_names":[],"object_type":"PAYLOAD","status":"ACTIVE","operator":null,"country":"US","launch_date":"2026-01-04","launch_site_code":"AFETR","launch_vehicle":null,"mission":null,"orbit_class":"UNKNOWN","rcs_meters":null,"size_class":null,"mass_kg":null,"dimensions":null,"purposes":["comms"],"wikipedia_slug":null,"has_3d_model":false,"image_url":null,"decayed_at":null,"tle_current":{"epoch":"2026-05-25T00:24:56.383200Z","epoch_age_seconds":66916,"freshness":"FRESH","line1":"1 67325U 26002W   26145.01731925  .00010768  00000+0  40020-3 0  9999","line2":"2 67325  42.9996 254.0847 0000277 346.2952  13.7892 15.27584137 22918","mean_motion":15.27584137,"eccentricity":2.77e-5,"inclination_deg":42.9996,"raan_deg":254.0847,"arg_perigee_deg":346.2952,"mean_anomaly_deg":13.7892,"bstar":0.0004002,"rev_number":2291,"period_min":94.26649342065,"perigee_km":482.84665388961,"apogee_km":483.22676291305,"semimajor_km":6861.1737084013,"source":"CELESTRAK","updated_at":"2026-05-25T13:38:21.519361Z"}}}